Location: Unspecified
(0.0000°N, 0.0000°E)
Time: 15:34:01
(UTC+00:00)

RS-15 - Pass Details

Date: 08 December 2017
Orbit: 1889 x 2156 km, 64.8° (Epoch: 20 April)

Event Time Altitude Azimuth Distance (km) Brightness Sun altitude
Exits shadow 03:24:02 53° 250° (WSW) 2,253 8.0 -33.7°
Maximum altitude 03:24:05 53° 249° (WSW) 2,252 8.0 -33.7°
Drops below altitude 10° 03:34:33 10° 175° (S) 4,270 10.1 -31.3°
Sets 03:37:55 0° 170° (S) 5,269 10.8 -30.6°
